NOAA 16 DEB, 41198

Orbit data source: Space-Track

NOAA 16 DEB, 41198 is space debris in SSO originally from a launch on Thu, 21 Sep 2000 UTC launched from the Air Force Western Test Range (AFWTR). Debris objects in space refer to the collection of defunct objects orbiting the Earth. Examples of debris include non-operational satellites, rocket bodies, and fragments generated from explosions, collisions, or faulty payload assembly.

Loading next visibility...
Identifier
41198, 2000-055DB
Orbit
SSO
Country
Flag of USUS
Related business
Manufacturer
Unknown
Mission
Spacecraft
Bus & Motor
Unknown
Mass
Unknown
Launch date (UTC)
2000-09-21 (25 years ago)
Launch vehicle
Unknown
Launch site
Air Force Western Test Range (AFWTR)
Object type
Payload
Rocket body
Debris
Shape & HBR
Unknown
Radar Cross Section
Small (<0.1 m²)

Expand to show TLE details & history
Last TLE update: 15 hours ago

TLE from 15 hours ago
0 NOAA 16 DEB
1 41198U 00055DB  25257.98735726  .00008575  00000-0  28771-2 0  9993
2 41198  98.9156 356.5443 0025586 243.3581 116.4983 14.37295518502122
Epoch: 2025-09-14T23:41Z
TLE epoch observation values (Epoch: 2025-09-14T23:41:47.667Z)
Latitude
-0.00005°
Longitude
6.89721°
Altitude
778.576 km
Speed
7.46 km/s
True Right ascension
23h 46m 10s
True Declination
0° 00' 00"
Sunlit
Object was in full shadow at epoch
Visualization orbit readout
Latitude
Unknown
Longitude
Unknown
Altitude
Unknown
Speed
Unknown
Apparent Right ascension
Unknown
Apparent Declination
Unknown
Sunlit
N/A
Visualization observer readout
Local Sidereal Time
07:24:34
Azimuth
Unknown
Elevation
Unknown
Doppler factor
Unknown
Orbital elements
Apogee altitude
782.869 km
Perigee altitude
746.318 km
Semi-major axis
7,142.731 km
Eccentricity
0.00256
Inclination
98.9156°
RAAN
356.5443°
Arg. of periapsis
243.3581°
True anomaly
116.76032°
Mean anomaly
116.4983°
Eccentric anomaly
116.62935°
Mean motion
3.5954 °/min
Orbital period
100.13 mins
BSTAR
0.0028771
Loading maneuver chart data...
Computing Atmospheric mass density...
Loading historical data...
Loading historical data...
Loading historical data...
Loading historical data...
Loading historical data...
Loading historical data...
Loading historical data...

Documentation

Showing up to 5 results
|